User: anonymous   Login
Location: Newark
(43.6583°N, 1.6617°E)
Time: 09:25:34
(UTC+00:00)
Language:

Explorer 7 - Orbit

View from above orbital plane
View from above orbital plane
View from above satellite
View from above satellite

Ground track
Ground track

The orbit data is extracted from the following two-line orbital elements,

1    22U 59009A   19232.17944744 -.00000039  00000-0  20389-4 0  9993
2    22  50.2844  80.0934 0140096 184.0054 175.9782 14.94900464180105
Epoch (UTC): 20 August 2019 04:18:24
Eccentricity: 0.0140096
inclination: 50.2844°
perigee height: 485 km
apogee height: 680 km
right ascension of ascending node: 80.0934°
argument of perigee: 184.0054°
revolutions per day: 14.94900464
mean anomaly at epoch: 175.9782°
orbit number at epoch: 18010

The dashed part of the orbit path shows where the satellite is in the earth's shadow,  

DLR